Change the Weather History Date:

Tuesday, December 24, 2013

  Actual Average Record
Temperature  
Mean Temperature 32 °F 26 °F  
Max Temperature 39 °F 33 °F 51 °F (2005)
Min Temperature 24 °F 19 °F -19 °F (1990)
Degree Days  
Heating Degree Days 33 39  
Month to date heating degree days 1043 905  
Since 1 July heating degree days 2526 2456  
Cooling Degree Days 0 0  
Month to date cooling degree days 0 0  
Year to date cooling degree days 904 510  
Moisture  
Dew Point 26 °F    
Average Humidity 78    
Maximum Humidity 92    
Minimum Humidity 64    
Precipitation  
Precipitation 0.03 in 0.04 in 1.00 in (1968)
Month to date precipitation 0.27 1.22  
Year to date precipitation 3.62 10.54  
Sea Level Pressure  
Sea Level Pressure 30.47 in    
Wind  
Wind Speed 14 mph (SW)    
Max Wind Speed 26 mph    
Max Gust Speed 36 mph    
Visibility 10 miles    
Events Rain    
T = Trace of Precipitation, MM = Missing Value Source: NWS Daily Summary

Daily Weather History Graph

Daily Weather History Graph

Search for Another Location

Airport or City:

Trip Planner

Search our weather history database for the weather conditions in past years. The results will help you decide how hot, cold, wet, or windy it might be!

Date:

Astronomy

Dec. 24, 2013 Rise Set
Actual Time 8:06 AM MST 5:08 PM MST
Civil Twilight 7:34 AM MST 5:41 PM MST
Nautical Twilight 6:58 AM MST 6:16 PM MST
Astronomical Twilight 6:24 AM MST 6:51 PM MST
Moon No Moon Rise 11:53 AM MST (12/24)
Length of Visible Light 10h 06m
Length of Day
9h 02m
Waning Gibbous, 58% of the Moon is Illuminated
Dec 24
Waning Gibbous
Dec 25
Last Quarter
Jan 1
New
Jan 7
First Quarter
Jan 15
Full

Hourly Weather History & Observations

Time (MST) Temp. Windchill Dew Point Humidity Pressure Visibility Wind Dir Wind Speed Gust Speed Precip Events Conditions
12:53 AM 37.9 °F 28.9 °F 34.0 °F 86% 30.27 in 10.0 mi West 16.1 mph - 0.01 in Rain Light Rain
1:08 AM 37.9 °F 27.1 °F 35.1 °F 89% 30.25 in 10.0 mi West 23.0 mph 32.2 mph 0.01 in Rain Light Rain
1:43 AM 37.0 °F 26.7 °F 36.0 °F 96% 30.26 in 10.0 mi WSW 19.6 mph 29.9 mph 0.02 in Rain Light Rain
1:53 AM 37.0 °F 27.0 °F 35.1 °F 93% 30.30 in 10.0 mi SW 18.4 mph 26.5 mph 0.02 in Rain Light Rain
2:53 AM 36.0 °F 25.0 °F 34.0 °F 93% 30.32 in 10.0 mi WSW 20.7 mph 27.6 mph 0.00 in   Overcast
3:53 AM 33.1 °F 20.3 °F 30.9 °F 92% 30.35 in 10.0 mi WSW 24.2 mph 35.7 mph N/A   Clear
4:53 AM 30.9 °F 19.4 °F 27.0 °F 85% 30.41 in 10.0 mi WSW 17.3 mph 28.8 mph N/A   Clear
5:53 AM 30.0 °F 17.5 °F 27.0 °F 88% 30.42 in 10.0 mi WSW 19.6 mph 26.5 mph N/A   Clear
6:53 AM 28.9 °F 16.1 °F 25.0 °F 85% 30.45 in 10.0 mi WSW 19.6 mph - N/A   Clear
7:53 AM 28.0 °F 16.5 °F 24.1 °F 85% 30.48 in 10.0 mi WSW 15.0 mph - N/A   Clear
8:53 AM 28.0 °F 18.1 °F 23.0 °F 81% 30.51 in 10.0 mi WSW 11.5 mph - N/A   Clear
9:53 AM 30.0 °F 19.1 °F 24.1 °F 79% 30.54 in 10.0 mi WSW 15.0 mph - N/A   Clear
10:53 AM 30.9 °F 18.7 °F 25.0 °F 79% 30.55 in 10.0 mi WSW 19.6 mph 26.5 mph N/A   Clear
11:53 AM 33.1 °F 22.6 °F 25.0 °F 72% 30.55 in 10.0 mi WSW 16.1 mph - N/A   Clear
12:53 PM 35.1 °F 25.2 °F 26.1 °F 70% 30.53 in 10.0 mi WSW 16.1 mph - N/A   Clear
1:53 PM 35.1 °F 25.2 °F 24.1 °F 64% 30.51 in 10.0 mi WSW 16.1 mph - N/A   Clear
2:53 PM 36.0 °F 26.3 °F 24.1 °F 62% 30.52 in 10.0 mi West 16.1 mph - N/A   Clear
3:53 PM 35.1 °F 25.5 °F 24.1 °F 64% 30.53 in 10.0 mi WSW 15.0 mph 21.9 mph N/A   Clear
4:53 PM 33.1 °F 24.9 °F 24.1 °F 70% 30.54 in 10.0 mi SW 10.4 mph - N/A   Clear
5:53 PM 30.0 °F 21.7 °F 21.9 °F 72% 30.56 in 10.0 mi SW 9.2 mph - N/A   Clear
6:53 PM 30.0 °F 21.7 °F 21.9 °F 72% 30.56 in 10.0 mi SW 9.2 mph - N/A   Clear
7:53 PM 28.0 °F 20.8 °F 21.9 °F 78% 30.58 in 10.0 mi SSW 6.9 mph - N/A   Clear
8:53 PM 27.0 °F 19.5 °F 21.0 °F 78% 30.58 in 10.0 mi South 6.9 mph - N/A   Clear
9:53 PM 27.0 °F 18.7 °F 19.9 °F 75% 30.58 in 10.0 mi South 8.1 mph - N/A   Clear
10:53 PM 25.0 °F 18.1 °F 19.9 °F 81% 30.59 in 10.0 mi South 5.8 mph - N/A   Clear
11:53 PM 26.1 °F 21.9 °F 19.9 °F 78% 30.59 in 10.0 mi SW 3.5 mph - N/A   Clear